Home   Weather   Lagos   Past weeks

Flag for Nigeria Past Weather in Lagos, Nigeria — Yesterday and Last 2 Weeks

Now
81 °F

Partly sunny.


Feels Like: 86 °F
Forecast: 74 / 85 °F
Wind: 5 mph from Southwest

Location: Lagos / Ikeja

Current Time: Sep 25, 2016 at 4:49:39 PM

Latest Report: Sep 25, 2016 at 4:00 PM


Visibility: N/A

Pressure: 29.89 "Hg

Humidity: 84%

Dew Point: 75 °F

Location of LagosLocation

Past Weather in Lagos — Graph

°F

Lagos Temperature Yesterday

Maximum temperature yesterday: 88 °F (at 2:00 PM)
Minimum temperature yesterday: 75 °F (at 5:00 AM)
Average temperature yesterday: 80 °F

High & Low Weather Summary for the Past Weeks

 TemperatureHumidityPressure
High88 °F (Sep 18, 3:00 PM)100% (Sep 11, 4:00 AM)30.07 "Hg (Sep 11, 4:00 AM)
Low73 °F (Sep 14, 2:00 PM)66% (Sep 17, 4:00 PM)29.86 "Hg (Sep 24, 4:00 PM)
Average79 °F88%29.96 "Hg
* Reported Sep 10 3:00 PM — Sep 25 3:00 PM, Lagos, Weather by CustomWeather, © 2016

Note: Actual official high and low records may vary slightly from our data, if they occured in-between our weather recording intervals... More about our weather records

Advertising

Lagos Weather History for the Previous 24 Hours

Scroll right to see more
 ConditionsComfort  
Time TempWeatherWind HumidityBarometerVisibility
3:00 PM
Sun, Sep 25
82 °FPartly sunny.7 mph84%29.89 "HgN/A
2:00 PM84 °FPartly sunny.2 mph84%29.89 "HgN/A
1:00 PM82 °FThundershowers. Partly sunny.5 mph84%29.95 "HgN/A
12:00 PM82 °FScattered clouds.5 mph79%29.98 "Hg5 mi
11:00 AM77 °FThunderstorms. Scattered clouds.3 mph94%29.98 "Hg4 mi
10:00 AM75 °FThunderstorms. Scattered clouds.No wind100%29.98 "Hg3 mi
9:00 AM75 °FThunderstorms. Scattered clouds.No wind100%29.98 "Hg2 mi
8:00 AM75 °FThunderstorms. Partly sunny.2 mph100%29.95 "Hg1 mi
7:00 AM75 °FThunderstorms. Partly sunny.3 mph94%29.92 "Hg3 mi
6:00 AM75 °FThunderstorms. Passing clouds.3 mph89%29.92 "Hg5 mi
5:00 AM75 °FThunderstorms. Passing clouds.5 mph89%29.89 "Hg5 mi
4:00 AM75 °FThunderstorms. Passing clouds.3 mph94%29.89 "Hg5 mi
3:00 AM75 °FThunderstorms. Passing clouds.2 mph94%29.89 "Hg5 mi
2:00 AM75 °FThunderstorms. Passing clouds.2 mph94%29.92 "Hg5 mi
1:00 AM75 °FThunderstorms. Passing clouds.2 mph94%29.95 "Hg5 mi
12:00 AM77 °FThunderstorms. Passing clouds.2 mph89%29.95 "Hg5 mi
11:00 PM
Sat, Sep 24
77 °FThunderstorms. Passing clouds.2 mph94%29.95 "Hg5 mi
10:00 PM77 °FThunderstorms. Passing clouds.2 mph94%29.95 "Hg5 mi
9:00 PM79 °FThunderstorms. Passing clouds.2 mph89%29.95 "Hg5 mi
8:00 PM79 °FThunderstorms. Passing clouds.2 mph89%29.92 "Hg5 mi
7:00 PM81 °FThunderstorms. Passing clouds.3 mph84%29.89 "HgN/A
6:00 PM81 °FThunderstorms. Scattered clouds.6 mph84%29.89 "HgN/A
5:00 PM82 °FThundershowers. Scattered clouds.9 mph79%29.86 "HgN/A
4:00 PM82 °FScattered clouds.7 mph84%29.86 "HgN/A
Weather by CustomWeather, © 2016

See weather overviewHow to use our weather pages